Flag for U.S.A. Weather past 2 weeks in Huntsville, Alabama, U.S.A.

Now
60 °F

Low clouds.


Feels Like: 60 °F
Forecast: 48 / 65 °F
Wind: 5 mph from Southeast

Location: Huntsville International / Jones Field

Current Time: Mar 3, 2015 at 2:33:01 PM

Latest Report: Mar 3, 2015 at 1:53 PM


Visibility: 8 mi

Pressure: 30.04 "Hg

Humidity: 86%

Dew point: 56 °F

Location of HuntsvilleLocation

Historic Weather in Huntsville — Graph

°F

Huntsville temperature yesterday

Maximum temperature yesterday: 50 °F (at 12:53 AM)
Minimum temperature yesterday: 41 °F (at 6:53 AM)
Average temperature yesterday: 47 °F

Past Weeks' High & Low Weather Summary

 TemperatureHumidityPressure
High59 °F (Mar 3, 12:53 PM)100% (Feb 16, 3:04 PM)30.56 "Hg (Feb 16, 3:04 PM)
Low11 °F (Feb 19, 5:53 AM)36% (Feb 21, 3:53 PM)29.75 "Hg (Feb 16, 4:00 PM)
Average36 °F70%30.22 "Hg
* Reported Feb 16 12:53 PM — Mar 3 12:53 PM, Huntsville, Weather by CustomWeather, © 2015

Note: Actual official high and low records may vary slightly from our data, if they occured in-between our weather recording intervals... More about our weather records

Advertising

Huntsville weather history for previous 24 hours

 ConditionsComfort  
Time TempWeatherWind HumidityBarometerVisibility
12:53 PM
Tue, Mar 3
59 °FDrizzle. Fog.8 mph90%30.06 "Hg2 mi
11:53 AM57 °FFog.6 mph87%30.10 "Hg3 mi
10:53 AM56 °FLow clouds.7 mph87%30.12 "Hg7 mi
9:53 AM54 °FLow clouds.8 mph90%30.13 "Hg7 mi
8:53 AM53 °FFog.7 mph89%30.15 "Hg2 mi
7:53 AM52 °FFog.6 mph89%30.16 "Hg6 mi
7:04 AM52 °FFog.6 mph88%30.15 "Hg5 mi
6:53 AM51 °FFog.6 mph92%30.15 "Hg5 mi
5:53 AM50 °FLow clouds.7 mph93%30.15 "Hg7 mi
4:53 AM50 °FLow clouds.5 mph89%30.16 "Hg7 mi
3:53 AM49 °FFog.No wind90%30.15 "Hg6 mi
2:53 AM48 °FFog.3 mph89%30.16 "Hg5 mi
1:53 AM48 °FFog.No wind86%30.18 "Hg5 mi
12:53 AM47 °FOvercast.6 mph86%30.19 "Hg7 mi
12:02 AM46 °FOvercast.No wind87%30.21 "Hg7 mi
11:53 PM
Mon, Mar 2
47 °FOvercast.No wind86%30.21 "Hg7 mi
10:53 PM47 °FOvercast.6 mph83%30.22 "Hg9 mi
9:53 PM47 °FOvercast.3 mph83%30.25 "Hg9 mi
8:53 PM47 °FLight rain. Mostly cloudy.No wind83%30.27 "Hg7 mi
7:53 PM47 °FOvercast.5 mph83%30.29 "Hg9 mi
6:53 PM47 °FOvercast.5 mph83%30.29 "Hg9 mi
5:53 PM47 °FOvercast.3 mph83%30.29 "Hg10 mi
4:53 PM48 °FOvercast.6 mph83%30.30 "Hg10 mi
3:53 PM49 °FLight rain. Mostly cloudy.6 mph80%30.31 "Hg9 mi
2:53 PM50 °FOvercast.3 mph71%30.31 "Hg10 mi
Weather by CustomWeather, © 2015

See weather overviewHow to use our weather pages